Regional Weather Roundup
Issued by NWS Albany, NY

Home | Current Version | Previous Version | Graphics & Text | Print | Product List | Glossary On
Versions: 1 2 3 4 5 6 7 8 9 10 11 12 13 14 15 16 17 18 19 20 21 22 23 24 25 26 27 28
000
ASUS41 KALY 230710
RWRALY

NEW YORK STATE HOURLY WEATHER ROUNDUP
NATIONAL WEATHER SERVICE ALBANY NY
300 AM EDT TUE AUG 23 2016

NOTE: "FAIR" INDICATES FEW OR NO CLOUDS BELOW 12,000 FEET WITH NO
SIGNIFICANT WEATHER AND/OR NO OBSTRUCTIONS TO VISIBILITY.

NYZ032-033-038>043-046>054-057>066-NYZ062>081-082-084-230800-
EAST


CITY           SKY/WX    TMP DP  RH WIND       PRES   REMARKS
ALBANY         CLEAR     54  48  80 CALM      30.24R
GLENS FALLS    CLEAR     51  48  89 CALM      30.23R
POUGHKEEPSIE   CLEAR    N/A N/A N/A MISG      30.24R
NEWBURGH       CLEAR     54  52  94 W7        30.25S
MONTGOMERY     CLEAR     52  50  93 S5        30.24S
WHITE PLAINS   CLEAR     56  50  80 NW5       30.24R
ISLIP          CLEAR     57  51  80 CALM      30.22S
NEW YORK CITY  CLEAR     69  49  48 CALM      30.23R
CENTRAL PARK   PTCLDY    64  48  56 NW3       30.27R
$$

NYZ005>009-017-018-044>046-055-056-230800-
CENTRAL


CITY           SKY/WX    TMP DP  RH WIND       PRES   REMARKS
FULTON         CLEAR     54  52  93 CALM      30.24R
SYRACUSE       CLEAR     56  52  86 CALM      30.23R
ROME           CLEAR     50  50 100 CALM      30.26R
ELMIRA         PTCLDY    52  49  89 CALM      30.27R
BINGHAMTON     CLEAR     56  48  74 W6        30.27R
MONTICELLO     CLEAR     48  48 100 CALM      30.28S
$$

NYZ026>034-041>043-087-230800-
NORTH


CITY           SKY/WX    TMP DP  RH WIND       PRES   REMARKS
WATERTOWN      PTCLDY    50  49  96 S3        30.22R
FORT DRUM      NOT AVBL
MASSENA        CLEAR     52  50  93 SW6       30.20R
SARANAC LAKE   PTCLDY    42  40  92 CALM      30.22R
PLATTSBURGH    CLEAR     54  51  90 CALM      30.17S
$$

NYZ001>004-010>016-019>021-085-230800-
WEST


CITY           SKY/WX    TMP DP  RH WIND       PRES   REMARKS
NIAGARA FALLS  CLEAR     60  51  72 CALM      30.24R
BUFFALO        CLEAR     60  53  77 S3        30.25R
DUNKIRK        CLEAR     59  54  83 S5        30.26R
JAMESTOWN      CLEAR     54  48  82 S3        30.29S
WELLSVILLE     CLEAR     53  49  86 CALM      30.32R
ROCHESTER      PTCLDY    57  55  93 SW5       30.25R
PENN YAN       CLEAR     58  54  86 S6        30.27R
$$

             KEY
       WCI = WIND CHILL INDEX
       VSB = VISIBILITY
       HX  = HEAT INDEX
$$




USA.gov is the U.S. government's official web portal to all federal, state and local government web resources and services.